Weather History for Slayton, MN

Change the Weather History Date:

Thursday, January 31, 2013

  Actual Average (KOTG) Record (KOTG)
Temperature  
Mean Temperature -6 °F -  
Max Temperature -2 °F 24 °F 49 °F (1989)
Min Temperature -9 °F 10 °F -19 °F (1985)
Degree Days  
Heating Degree Days 70    
Moisture  
Dew Point -13 °F    
Average Humidity 72    
Maximum Humidity 79    
Minimum Humidity 65    
Precipitation  
Precipitation 0.00 in - - ()
Sea Level Pressure  
Sea Level Pressure 30.09 in    
Wind  
Wind Speed 21 mph (WNW)    
Max Wind Speed 32 mph    
Max Gust Speed 38 mph    
Visibility 10 miles    
Events      
Averages and records for this station are not official NWS values.
T = Trace of Precipitation, MM = Missing Value Source: NWS Daily Summary

Daily Weather History Graph

Daily Weather History Graph

Search for Another Location

Airport:

Trip Planner

Search our weather history database for the weather conditions in past years. The results will help you decide how hot, cold, wet, or windy it might be!

Date:

Astronomy

Jan. 31, 2013 Rise Set
Actual Time 7:41 AM CST 5:32 PM CST
Civil Twilight 7:10 AM CST 6:03 PM CST
Nautical Twilight 6:35 AM CST 6:37 PM CST
Astronomical Twilight 6:02 AM CST 7:11 PM CST
Moon 10:49 PM CST (1/31) 9:29 AM CST (1/31)
Length of Visible Light 10h 52m
Length of Day
9h 51m
Waning Gibbous, 79% of the Moon is Illuminated
Jan 31
Waning Gibbous
Feb 3
Last Quarter
Feb 10
New
Feb 17
First Quarter
Feb 25
Full

Hourly Weather History & Observations

Time (CST) Temp. Windchill Dew Point Humidity Pressure Visibility Wind Dir Wind Speed Gust Speed Precip Events Conditions
12:15 AM -2.4 °F -24.9 °F -7.8 °F 78% 29.84 in 10.0 mi WNW 19.6 mph 24.2 mph N/A   Clear
12:35 AM -3.1 °F -24.7 °F -8.5 °F 78% 29.84 in 10.0 mi NW 17.3 mph - N/A   Clear
12:55 AM -3.3 °F -26.1 °F -8.7 °F 78% 29.84 in 10.0 mi WNW 19.6 mph 25.3 mph N/A   Clear
1:15 AM -3.8 °F -26.8 °F -9.4 °F 77% 29.85 in 10.0 mi NW 19.6 mph - N/A   Clear
1:35 AM -4.2 °F -27.3 °F -10.1 °F 76% 29.85 in 10.0 mi NW 19.6 mph - N/A   Clear
1:55 AM -4.9 °F -27.6 °F -10.5 °F 77% 29.86 in 10.0 mi NW 18.4 mph 27.6 mph N/A   Clear
2:15 AM -5.3 °F -27.5 °F -10.8 °F 77% 29.86 in 10.0 mi NW 17.3 mph 23.0 mph N/A   Scattered Clouds
2:35 AM -4.7 °F -28.5 °F -10.3 °F 77% 29.87 in 10.0 mi WNW 20.7 mph - N/A   Mostly Cloudy
2:54 AM -4.5 °F -27.7 °F -10.3 °F 76% 29.87 in 10.0 mi WNW 19.6 mph - N/A   Overcast
3:15 AM -4.0 °F -25.8 °F -9.0 °F 79% 29.88 in 10.0 mi NW 17.3 mph - N/A   Overcast
3:34 AM -4.2 °F -27.3 °F -9.4 °F 78% 29.89 in 10.0 mi NW 19.6 mph - N/A   Overcast
3:55 AM -4.5 °F -27.1 °F -9.9 °F 78% 29.89 in 10.0 mi WNW 18.4 mph - N/A   Overcast
4:15 AM -5.3 °F -28.7 °F -10.7 °F 77% 29.90 in 10.0 mi NW 19.6 mph - N/A   Overcast
4:35 AM -5.8 °F -28.8 °F -11.2 °F 77% 29.91 in 10.0 mi NW 18.4 mph - N/A   Scattered Clouds
4:55 AM -6.2 °F -29.8 °F -11.7 °F 77% 29.92 in 10.0 mi NW 19.6 mph - N/A   Clear
5:15 AM -6.5 °F -30.3 °F -12.1 °F 77% 29.93 in 10.0 mi WNW 19.6 mph - N/A   Clear
5:35 AM -6.9 °F -28.9 °F -12.8 °F 75% 29.93 in 10.0 mi NW 16.1 mph - N/A   Clear
5:55 AM -6.9 °F -30.8 °F -12.6 °F 76% 29.93 in 10.0 mi WNW 19.6 mph - N/A   Clear
6:15 AM -7.1 °F -31.6 °F -13.0 °F 75% 29.95 in 10.0 mi NW 20.7 mph - N/A   Clear
6:35 AM -7.2 °F -31.8 °F -13.0 °F 76% 29.96 in 10.0 mi WNW 20.7 mph - N/A   Clear
6:55 AM -7.6 °F -32.3 °F -13.2 °F 77% 29.97 in 10.0 mi NW 20.7 mph 25.3 mph N/A   Mostly Cloudy
7:15 AM -7.8 °F -33.1 °F -13.5 °F 76% 29.98 in 10.0 mi WNW 21.9 mph 29.9 mph N/A   Overcast
7:35 AM -8.0 °F -33.3 °F -14.1 °F 75% 30.00 in 10.0 mi NW 21.9 mph 31.1 mph N/A   Overcast
7:55 AM -8.1 °F -33.0 °F -14.6 °F 73% 30.01 in 10.0 mi WNW 20.7 mph 29.9 mph N/A   Mostly Cloudy
8:15 AM -7.8 °F -33.6 °F -14.3 °F 73% 30.01 in 10.0 mi WNW 23.0 mph - N/A   Scattered Clouds
8:35 AM -7.2 °F -31.3 °F -14.1 °F 72% 30.02 in 10.0 mi NW 19.6 mph 31.1 mph N/A   Clear
8:55 AM -7.1 °F -33.2 °F -14.1 °F 72% 30.03 in 5.0 mi WNW 24.2 mph - N/A   Haze
9:35 AM -6.5 °F -33.4 °F -14.4 °F 69% 30.05 in 10.0 mi NW 26.5 mph - N/A   Clear
9:55 AM -6.5 °F -32.9 °F -14.4 °F 69% 30.07 in 10.0 mi NW 25.3 mph 33.4 mph N/A   Mostly Cloudy
10:13 AM -6.3 °F -32.7 °F -14.3 °F 69% 30.08 in 10.0 mi WNW 25.3 mph - N/A   Scattered Clouds
10:37 AM -6.0 °F -31.7 °F -13.9 °F 69% 30.09 in 10.0 mi NW 24.2 mph 34.5 mph N/A   Unknown
10:38 AM -5.8 °F -32.0 °F -13.7 °F 69% 30.10 in 10.0 mi NW 25.3 mph 34.5 mph N/A   Scattered Clouds
10:54 AM -6.0 °F -33.5 °F -14.1 °F 68% 30.11 in 5.0 mi WNW 28.8 mph 36.8 mph N/A   Haze
11:15 AM -6.0 °F -34.7 °F -14.1 °F 68% 30.11 in 5.0 mi NW 32.2 mph 36.8 mph N/A   Haze
11:34 AM -5.8 °F -33.3 °F -14.1 °F 67% 30.12 in 7.0 mi NW 28.8 mph 34.5 mph N/A   Mostly Cloudy
11:55 AM -5.1 °F -32.7 °F -13.5 °F 67% 30.13 in 7.0 mi WNW 29.9 mph 38.0 mph N/A   Mostly Cloudy
12:15 PM -4.7 °F -31.8 °F -13.2 °F 67% 30.13 in 7.0 mi WNW 28.8 mph 34.5 mph N/A   Scattered Clouds
12:35 PM -4.0 °F -31.3 °F -12.5 °F 67% 30.13 in 7.0 mi WNW 29.9 mph 36.8 mph N/A   Scattered Clouds
12:55 PM -4.2 °F -31.5 °F -12.8 °F 66% 30.14 in 10.0 mi WNW 29.9 mph 34.5 mph N/A   Scattered Clouds
1:15 PM -3.3 °F -29.9 °F -11.7 °F 67% 30.14 in 10.0 mi NW 28.8 mph 35.7 mph N/A   Clear
1:35 PM -3.1 °F -29.2 °F -11.6 °F 67% 30.15 in 10.0 mi WNW 27.6 mph 33.4 mph N/A   Scattered Clouds
1:55 PM -3.1 °F -28.4 °F -11.2 °F 68% 30.15 in 10.0 mi WNW 25.3 mph 33.4 mph N/A   Clear
2:15 PM -2.6 °F -28.5 °F -10.8 °F 68% 30.16 in 10.0 mi WNW 27.6 mph 33.4 mph N/A   Clear
2:35 PM -2.6 °F -27.6 °F -11.0 °F 67% 30.17 in 10.0 mi WNW 25.3 mph 33.4 mph N/A   Scattered Clouds
2:55 PM -2.2 °F -27.1 °F -10.8 °F 67% 30.17 in 10.0 mi WNW 25.3 mph 32.2 mph N/A   Scattered Clouds
3:15 PM -2.9 °F -28.6 °F -11.2 °F 68% 30.18 in 10.0 mi WNW 26.5 mph 31.1 mph N/A   Scattered Clouds
3:35 PM -2.7 °F -28.3 °F -11.2 °F 67% 30.19 in 10.0 mi WNW 26.5 mph 32.2 mph N/A   Clear
3:55 PM -3.3 °F -27.6 °F -12.1 °F 66% 30.20 in 10.0 mi WNW 23.0 mph 28.8 mph N/A   Clear
4:15 PM -3.6 °F -29.1 °F -12.6 °F 65% 30.20 in 10.0 mi WNW 25.3 mph - N/A   Clear
4:35 PM -4.2 °F -28.8 °F -13.0 °F 66% 30.20 in 10.0 mi NW 23.0 mph 27.6 mph N/A   Clear
4:55 PM -4.4 °F -29.1 °F -13.0 °F 66% 30.21 in 10.0 mi NW 23.0 mph 28.8 mph N/A   Clear
5:15 PM -5.8 °F -30.5 °F -14.1 °F 67% 30.22 in 10.0 mi NW 21.9 mph 25.3 mph N/A   Clear
5:35 PM -6.3 °F -30.6 °F -14.6 °F 67% 30.22 in 10.0 mi NW 20.7 mph - N/A   Clear
5:54 PM -6.7 °F -31.1 °F -14.4 °F 69% 30.23 in 10.0 mi NW 20.7 mph 24.2 mph N/A   Clear
6:15 PM -7.6 °F -31.7 °F -14.8 °F 71% 30.23 in 10.0 mi WNW 19.6 mph 23.0 mph N/A   Clear
6:34 PM -7.8 °F -31.4 °F -15.3 °F 70% 30.24 in 10.0 mi WNW 18.4 mph 24.2 mph N/A   Clear
6:55 PM -8.1 °F -31.2 °F -15.7 °F 70% 30.25 in 10.0 mi WNW 17.3 mph 24.2 mph N/A   Clear
7:15 PM -8.5 °F -33.5 °F -16.1 °F 70% 30.25 in 10.0 mi WNW 20.7 mph - N/A   Clear
7:35 PM -8.7 °F -33.7 °F -16.1 °F 70% 30.26 in 10.0 mi WNW 20.7 mph - N/A   Clear
7:55 PM -8.9 °F -32.8 °F -16.1 °F 71% 30.26 in 10.0 mi WNW 18.4 mph 25.3 mph N/A   Clear
8:15 PM -8.9 °F -33.4 °F -16.2 °F 70% 30.26 in 10.0 mi WNW 19.6 mph 25.3 mph N/A   Clear
8:35 PM -9.0 °F -32.4 °F -16.2 °F 71% 30.27 in 10.0 mi WNW 17.3 mph 20.7 mph N/A   Clear
8:55 PM -9.4 °F -31.4 °F -16.6 °F 71% 30.27 in 10.0 mi West 15.0 mph 21.9 mph N/A   Clear
9:15 PM -9.4 °F -32.8 °F -16.6 °F 71% 30.27 in 10.0 mi WNW 17.3 mph 20.7 mph N/A   Clear
9:35 PM -9.4 °F -32.1 °F -16.6 °F 71% 30.28 in 10.0 mi WNW 16.1 mph 21.9 mph N/A   Clear
9:55 PM -9.4 °F -31.4 °F -16.2 °F 72% 30.28 in 10.0 mi WNW 15.0 mph 19.6 mph N/A   Clear
10:15 PM -9.4 °F -32.1 °F -15.9 °F 73% 30.27 in 10.0 mi WNW 16.1 mph 19.6 mph N/A   Clear
10:35 PM -9.2 °F -30.4 °F -15.9 °F 73% 30.27 in 10.0 mi WNW 13.8 mph - N/A   Clear
10:55 PM -9.4 °F -30.6 °F -15.9 °F 73% 30.27 in 10.0 mi WNW 13.8 mph - N/A   Clear
11:15 PM -9.0 °F -28.4 °F -15.7 °F 73% 30.27 in 10.0 mi WNW 11.5 mph - N/A   Clear
11:35 PM -9.2 °F -26.6 °F -15.7 °F 73% 30.27 in 10.0 mi West 9.2 mph - N/A   Clear
11:55 PM -9.4 °F -28.9 °F -15.9 °F 73% 30.27 in 10.0 mi West 11.5 mph - N/A   Clear